Regional Weather Roundup
Issued by NWS San Angelo, TX

Home | Current Version | Previous Version | Text Only | Print | Product List | Glossary On
Versions: 1 2 3 4 5 6 7 8 9 10 11 12 13 14 15 16 17 18 19 20 21 22 23 24 25 26 27 28 29 30 31 32 33 34 35 36 37 38 39 40 41 42 43 44 45 46 47 48 49 50
000
ASUS44 KSJT 061211
RWRSJT
WEST CENTRAL TEXAS REGIONAL WEATHER ROUNDUP
NATIONAL WEATHER SERVICE SAN ANGELO TX
600 AM CST SAT FEB 06 2016

NOTE: "FAIR" INDICATES FEW OR NO CLOUDS BELOW 12,000 FEET WITH NO
SIGNIFICANT WEATHER AND/OR OBSTRUCTIONS TO VISIBILITY.

TXZ049-054-064>066-071>073-076>078-098-099-113-114-127-128-139-140-
154-155-168>170-061300
...LOCATIONS ACROSS WEST CENTRAL TEXAS...

CITY           SKY/WX    TMP DP  RH WIND       PRES   REMARKS
SAN ANGELO     CLEAR     29  20  69 W5        30.40R WCI  24
ABILENE        CLEAR     35  22  58 NW14      30.35R WCI  26
DYESS AFB      CLEAR     34  21  58 NW15      30.35R WCI  25
JUNCTION       PTCLDY    27  18  69 NW6       30.36S WCI  20
SWEETWATER     CLEAR     35  20  55 W10       30.40R WCI  27
BROWNWOOD      MOCLDY    39  23  52 NW15G22   30.32R WCI  31
COLEMAN        SUNNY     39  22  51 NW13G22   30.34R WCI  31
SONORA         CLEAR     30  21  69 CALM      30.43R
OZONA          FAIR      32  21  64 W6        30.44R WCI  26
BRADY          NOT AVBL
$$

TEXAS PANHANDLE/OKLAHOMA PANHANDLE

CITY           SKY/WX    TMP DP  RH WIND       PRES   REMARKS
AMARILLO       CLEAR     20  14  77 W5        30.35S WCI  13
BORGER         CLEAR     22  15  75 SW8       30.35F WCI  12
CANADIAN       CLEAR     26  20  76 CALM      30.35S
DALHART        CLOUDY    18  10  71 NW9       30.33F WCI   7
DUMAS          CLOUDY    18  12  77 W7        30.33S WCI   9
GUYMON         NOT AVBL
HEREFORD       NOT AVBL
PAMPA          SUNNY     20  16  85 NW3       30.34S
PERRYTON       CLEAR     23  19  82 W8        30.33F WCI  14
$$

SOUTHERN PANHANDLE/SOUTH PLAINS/ROLLING PLAINS

CITY           SKY/WX    TMP DP  RH WIND       PRES   REMARKS
LUBBOCK        CLEAR     22  16  78 NW8       30.36S WCI  12
SNYDER           N/A     27  19  71 W7        30.40R WCI  20
CHILDRESS      CLEAR     31  19  61 N14       30.35S WCI  21
SEMINOLE       SUNNY     22  17  78 NW8       30.41S WCI  13
$$

PERMIAN BASIN

CITY           SKY/WX    TMP DP  RH WIND       PRES   REMARKS
MIDLAND        CLEAR     27  18  69 NW10      30.41R WCI  17
ODESSA         CLEAR     28  17  63 NW9       30.42R WCI  19
WINK           CLOUDY    23  15  71 NW3       30.43S
$$

FAR WEST/SOUTHWEST MOUNTAINS/TRANS PECOS

CITY           SKY/WX    TMP DP  RH WIND       PRES   REMARKS
ALPINE         CLOUDY    23  13  64 SW9       30.48F WCI  13
DRYDEN           N/A     36  18  48 N5        30.42S WCI  32
EL PASO        CLEAR     24   5  44 E5        30.44R WCI  18
FORT STOCKTON  CLEAR     31  18  58 SW12      30.44F WCI  22
GUADALUPE PASS CLOUDY    27  10  49 W16       30.38F WCI  15
MARFA          CLOUDY    15   7  70 CALM      30.44F
PECOS          MOSUNNY   26  13  57 E5        30.46S WCI  20
$$

DALLAS/FORT WORTH METROPLEX

CITY           SKY/WX    TMP DP  RH WIND       PRES   REMARKS
DFW AIRPORT    PTCLDY    37  32  82 CALM      30.22R
FTW MEACHAM    CLEAR     37  27  67 W7        30.22R WCI  32
DAL-EXECUTIVE  CLEAR     34  32  92 CALM      30.21R
GRAND PRAIRIE  NOT AVBL
ADDISON        NOT AVBL
MESQUITE       NOT AVBL
LANCASTER      MOSUNNY   32  30  93 CALM      30.23S FOG
$$

NORTH CENTRAL TEXAS

CITY           SKY/WX    TMP DP  RH WIND       PRES   REMARKS
SHRMAN/DENISON CLOUDY    42  37  84 E9        30.27R WCI  36
GAINESVILLE    CLOUDY    42  32  70 E9        30.26S WCI  36
BRIDGEPORT     MOSUNNY   36  29  76 NW9G16    30.27R WCI  29
DENTON         MOCLDY    33  29  85 CALM      30.22S
WAXAHACHIE     SUNNY     36  34  93 W6        30.23R WCI  31
GRANBURY       MOSUNNY   39  30  71 W12G17    30.26R WCI  31
$$

WESTERN NORTH TEXAS

CITY           SKY/WX    TMP DP  RH WIND       PRES   REMARKS
WICHITA FALLS  MOCLDY    39  32  76 NW17      30.30R WCI  30
VERNON         SUNNY     35  20  56 NW15      30.35S WCI  25
BRECKENRIDGE   SUNNY     40  27  58 NW13G20   30.32R WCI  33
COMANCHE       CLEAR     39  28  64 NW14G20   30.29R WCI  31
$$

CENTRAL AND SOUTH CENTRAL TEXAS

CITY           SKY/WX    TMP DP  RH WIND       PRES   REMARKS
AUSTIN/BERGSTM CLEAR     47  26  44 W10       30.29F
WACO           CLEAR     37  27  67 W8        30.25S WCI  31
HILLSBORO      SUNNY     36  28  73 CALM      30.23S
TEMPLE         PTCLDY    44  24  45 W16       30.26S WCI  37
KILLEEN-GRAY   CLEAR     41  23  47 W13       30.26S WCI  34
FORT HOOD      CLEAR     43  23  45 W13       30.24S WCI  36
GEORGETOWN     CLEAR     41  27  56 W10       30.28R WCI  35
LAGO VISTA     FAIR      43  27  53 W15G24    30.29S WCI  35
SAN MARCOS     CLEAR     41  34  75 W7        30.32F WCI  36
NEW BRAUNFELS  CLEAR     40  33  76 W8        30.32S WCI  34
RANDOLPH AFB   CLEAR     43  31  62 NW12      30.32F WCI  37
SAN ANTONIO    PTCLDY    41  32  70 NW7       30.34S WCI  36
STINSON        CLEAR     45  35  68 W5        30.33S
PLEASANTON     NOT AVBL
LA GRANGE      CLEAR     44  40  88 W3        30.29S
GIDDINGS       SUNNY     42  40  92 SW5       30.32F WCI  39
$$

EAST TEXAS

CITY           SKY/WX    TMP DP  RH WIND       PRES   REMARKS
PARIS          CLOUDY    39  30  70 W6        30.29F WCI  35
CLARKSVILLE    NOT AVBL
TYLER          CLOUDY    42  37  82 SE6       30.26R WCI  38
LONGVIEW       LGT RAIN  39  37  92 SE6       30.29F WCI  35
PALESTINE      SUNNY     39  38  94 S3        30.27S
NACOGDOCHES    MOCLDY    39  36  87 SE6       30.27F WCI  35
$$

TEXAS HILL COUNTRY AND EDWARDS PLATEAU

CITY           SKY/WX    TMP DP  RH WIND       PRES   REMARKS
LLANO          SUNNY     41  25  52 W9        30.36R WCI  35
HORSESHOE BAY  FAIR      43  26  50 W6        30.32R WCI  39
KERRVILLE      CLEAR     30  25  81 CALM      30.34S
FREDERICKSBRG  CLEAR     38  22  51 NW7       30.32S WCI  33
ROCKSPRINGS    SUNNY     34  21  60 NW3       30.38R
HONDO          CLEAR     30  27  88 NW9       30.38S WCI  22
UVALDE         SUNNY     33  30  90 CALM      30.40R
DEL RIO        CLEAR     36  24  62 NW5       30.43R WCI  32
$$

SOUTHEAST TEXAS

CITY           SKY/WX    TMP DP  RH WIND       PRES   REMARKS
COLLEGE STN    CLEAR     40  39  97 SW5       30.27F WCI  37
CALDWELL       SUNNY     37  37 100 CALM      30.31S
CROCKETT       MOSUNNY   39  37  93 SE5       30.30S WCI  36
BRENHAM        CLEAR     44  43  96 SW6       30.30S
HUNTSVILLE     MOCLDY    42  40  92 S7        30.26F WCI  38
CONROE         MOCLDY    41  39  93 CALM      30.29F
HOUSTON BUSH   TSTM      46  42  86 N3        30.31R FOG
HOUSTON HOBBY  TSTM      48  43  82 NW14G28   30.33R
PERLAND        TSTM      50  44  80 NW8       30.31R
WHARTON        PTSUNNY   47  45  93 SW5       30.32F
$$

THE UPPER TEXAS COAST

CITY           SKY/WX    TMP DP  RH WIND       PRES   REMARKS
ORANGE         CLOUDY    43  37  81 E5        30.31F
PORT ARTHUR    PTCLDY    44  40  85 E5        30.28F
GALVESTON      PTCLDY    50  45  83 SE6       30.29S
ANGLETON       PTCLDY    41  40  96 CALM      30.28S
BAY CITY       HVY RAIN  46  45  97 NW15G32   30.34R WCI  40
$$

TEXAS COASTAL BEND, RIO GRANDE PLAINS DEEP SOUTH TEXAS

CITY           SKY/WX    TMP DP  RH WIND       PRES   REMARKS
VICTORIA       LGT RAIN  47  45  93 W9        30.34S
BEEVILLE       FAIR      46  45  95 NW9       30.34R
ROCKPORT       CLEAR     50  47  89 W5        30.32R
PORT ARANSAS   SUNNY     54  54 100 CALM      30.32R
PORT LAVACA    PTSUNNY   47  45  91 N6        30.33R
CORPUS CHRISTI CLEAR     44  41  89 W9        30.33R WCI  39
KINGSVILLE NAS PTCLDY    43  43 100 W6        30.34R WCI  39
COTULLA        CLEAR     39  36  89 W5        30.39R WCI  36
LAREDO         PTCLDY    42  37  82 W8        30.40R WCI  37
BROWNSVILLE    PTCLDY    54  51  90 NW7       30.34R
PORT ISABEL    CLEAR     54  51  90 NW10      30.34R
HEBBRONVILLE   NOT AVBL
MCALLEN        PTCLDY    51  46  83 W3        30.37R
WESLACO        PTCLDY    50  46  86 N7        30.35R
FALFURRIAS     MOSUNNY   45  41  86 W3        30.35R
EDINBURG       SUNNY     47  44  87 NW3       30.36S
$$



USA.gov is the U.S. government's official web portal to all federal, state and local government web resources and services.